SM6KNE Weather Reports


time (UTC)temp
C
wind
direction
speed
KPH
gust
KPH
rain 1hr
cm
rain 24hr
cm
rain mn
cm
humidity
%
barometer
mb
20260505235523 0 0.0 0.0 0.00 0.00 0.00 59 1013.1
20260505234517 0 0.0 0.0 0.00 0.00 0.00 59 1013.1
20260505233520 0 0.0 0.0 0.00 0.00 0.00 58 1013.1
20260505232525 0 0.0 0.0 0.00 0.00 0.00 58 1013.1
20260505231515 0 0.0 0.0 0.00 0.00 0.00 56 1013.1
20260505230523 0 0.0 0.0 0.00 0.00 0.00 56 1013.1
20260505225524 0 0.0 0.0 0.00 0.00 0.00 57 1013.1
20260505224523 0 0.0 0.0 0.00 0.00 0.00 56 1013.1
20260505223524 0 0.0 0.0 0.00 0.00 0.00 55 1013.1
20260505222520 1 0.0 0.0 0.00 0.00 0.00 54 1013.1
20260505221523 1 0.0 0.0 0.00 0.00 0.00 54 1013.1
20260505220523 1 0.0 0.0 0.00 0.00 0.00 53 1013.1
20260505215523 1 0.0 0.0 0.00 0.00 0.00 52 1013.1
20260505214544 2 90 0.0 1.6 0.00 0.00 0.00 52 1013.1
20260505213524 2 0.0 0.0 0.00 0.00 0.00 52 1013.1
20260505212524 2 0.0 0.0 0.00 0.00 0.00 51 1013.1
20260505211520 2 0.0 0.0 0.00 0.00 0.00 51 1013.1
20260505210525 2 0.0 0.0 0.00 0.00 0.00 49 1013.1
20260505205524 3 0.0 0.0 0.00 0.00 0.00 48 1013.1
20260505204527 3 0.0 0.0 0.00 0.00 0.00 47 1013.1
20260505203523 3 0.0 0.0 0.00 0.00 0.00 48 1013.1
20260505202524 4 0.0 0.0 0.00 0.00 0.00 47 1013.1
20260505201523 4 0.0 0.0 0.00 0.00 0.00 46 1013.1
20260505200520 4 0.0 0.0 0.00 0.00 0.00 44 1013.1
20260505195525 5 0.0 0.0 0.00 0.00 0.00 43 1013.1
20260505194523 5 0.0 0.0 0.00 0.00 0.00 41 1013.1
20260505193523 6 0.0 0.0 0.00 0.00 0.00 40 1012.1
20260505192524 6 0.0 0.0 0.00 0.00 0.00 37 1012.1
20260505191523 6 0.0 0.0 0.00 0.00 0.00 36 1012.1
20260505190523 7 0.0 0.0 0.00 0.00 0.00 35 1012.1
20260505185520 8 0.0 0.0 0.00 0.00 0.00 33 1012.1
20260505184524 8 248 1.6 4.8 0.00 0.00 0.00 32 1012.1
20260505183515 8 264 6.4 9.7 0.00 0.00 0.00 32 1012.1
20260505182523 9 256 8.0 9.7 0.00 0.00 0.00 32 1012.1
20260505181517 10 253 8.0 9.7 0.00 0.00 0.00 31 1012.1
20260505180543 10 265 9.7 12.9 0.00 0.00 0.00 30 1012.1
20260505175544 11 271 12.9 14.5 0.00 0.00 0.00 29 1012.1
20260505174520 11 256 12.9 14.5 0.00 0.00 0.00 27 1012.1
20260505173525 11 272 11.3 12.9 0.00 0.00 0.00 25 1012.1
20260505172524 12 259 11.3 12.9 0.00 0.00 0.00 23 1012.1
20260505171523 13 269 11.3 16.1 0.00 0.00 0.00 22 1012.1
20260505170523 14 271 11.3 14.5 0.00 0.00 0.00 22 1011.1
20260505165544 15 266 11.3 14.5 0.00 0.00 0.00 22 1011.2
20260505164523 16 260 8.0 12.9 0.00 0.00 0.00 21 1012.1
20260505163541 17 289 6.4 12.9 0.00 0.00 0.00 21 1012.1
20260505162524 17 290 6.4 9.7 0.00 0.00 0.00 20 1012.1
20260505161532 17 262 9.7 12.9 0.00 0.00 0.00 21 1012.1
20260505160526 18 289 11.3 17.7 0.00 0.00 0.00 23 1012.1
20260505152521 18 280 12.9 16.1 0.00 0.00 0.00 23 1012.1
20260505151524 18 267 9.7 12.9 0.00 0.00 0.00 23 1012.1
20260505150524 18 270 12.9 17.7 0.00 0.00 0.00 23 1012.1
20260505140525 19 282 16.1 19.3 0.00 0.00 0.00 21 1011.1
20260505124544 17 275 20.9 24.1 0.00 0.00 0.00 27 1011.1
20260505123624 18 267 19.3 24.1 0.00 0.00 0.00 27 1011.1
20260505122523 18 254 17.7 22.5 0.00 0.00 0.00 28 1011.1
20260505121544 18 277 16.1 22.5 0.00 0.00 0.00 28 1011.1
20260505120523 18 265 22.5 29.0 0.00 0.00 0.00 27 1011.1
20260505115526 18 256 12.9 16.1 0.00 0.00 0.00 28 1011.1
20260505114523 18 262 16.1 20.9 0.00 0.00 0.00 29 1011.1
20260505113523 17 263 16.1 24.1 0.00 0.00 0.00 31 1011.1
20260505112526 17 267 17.7 24.1 0.00 0.00 0.00 31 1011.1
20260505111524 16 270 17.7 20.9 0.00 0.00 0.00 30 1011.1
20260505110544 16 284 16.1 20.9 0.00 0.00 0.00 31 1011.1
20260505101604 14 284 17.7 24.1 0.00 0.00 0.00 33 1011.1
20260505100543 14 275 17.7 20.9 0.00 0.00 0.00 33 1011.1
20260505095523 13 274 17.7 24.1 0.00 0.00 0.00 34 1011.1
20260505094523 12 272 14.5 20.9 0.00 0.00 0.00 33 1011.1
20260505093526 12 267 19.3 24.1 0.00 0.00 0.00 35 1011.1
20260505092524 11 266 16.1 16.1 0.00 0.00 0.00 34 1011.1
20260505091543 12 276 14.5 17.7 0.00 0.00 0.00 37 1011.1
20260505090524 11 251 12.9 17.7 0.00 0.00 0.00 40 1011.1
20260505085523 11 262 9.7 17.7 0.00 0.00 0.00 41 1011.1
20260505084544 11 253 4.8 12.9 0.00 0.00 0.00 41 1011.1
20260505083523 10 262 11.3 12.9 0.00 0.00 0.00 40 1011.1
20260505082523 10 266 4.8 8.0 0.00 0.00 0.00 40 1011.1
20260505081524 9 268 14.5 16.1 0.00 0.00 0.00 39 1011.1
20260505080523 9 284 12.9 17.7 0.00 0.00 0.00 42 1011.1
20260505075523 8 262 16.1 20.9 0.00 0.00 0.00 44 1011.1
20260505074523 8 295 8.0 12.9 0.00 0.00 0.00 47 1011.1
20260505073524 8 254 8.0 12.9 0.00 0.00 0.00 49 1011.1
20260505072542 8 278 3.2 8.0 0.00 0.00 0.00 51 1011.1
20260505071523 8 6 0.0 1.6 0.00 0.00 0.00 51 1011.1
20260505070518 7 312 4.8 8.0 0.00 0.00 0.00 51 1011.1
20260505065536 7 265 12.9 16.1 0.00 0.00 0.00 52 1011.1
20260505064523 7 326 4.8 8.0 0.00 0.00 0.00 53 1011.1
20260505063519 6 293 6.4 14.5 0.00 0.00 0.00 53 1011.1
20260505062523 6 338 0.0 1.6 0.00 0.00 0.00 53 1011.1
20260505061544 6 315 4.8 11.3 0.00 0.00 0.00 54 1011.1
20260505060518 6 297 4.8 11.3 0.00 0.00 0.00 55 1011.1
20260505055524 6 297 6.4 9.7 0.00 0.00 0.00 56 1011.1
20260505054524 6 280 8.0 11.3 0.00 0.00 0.00 60 1011.1
20260505053515 5 274 4.8 11.3 0.00 0.00 0.00 64 1011.1
20260505052545 5 293 1.6 3.2 0.00 0.00 0.00 64 1011.1
20260505051523 5 0.0 0.0 0.00 0.00 0.00 65 1010.1
20260505050523 5 293 1.6 3.2 0.00 0.00 0.00 65 1010.1
20260505041523 5 0.0 0.0 0.00 0.00 0.00 69 1010.1
20260505040517 5 0.0 0.0 0.00 0.00 0.00 69 1010.1
20260505035528 5 248 1.6 3.2 0.00 0.00 0.00 71 1010.1
20260505034524 5 0.0 0.0 0.00 0.00 0.00 70 1009.1
20260505033528 5 0.0 0.0 0.00 0.00 0.00 70 1009.1
20260505032523 5 0.0 0.0 0.00 0.00 0.00 70 1009.1
20260505031523 6 280 1.6 6.4 0.00 0.00 0.00 71 1009.1
20260505030547 6 280 3.2 6.4 0.00 0.00 0.00 72 1009.1
20260505025523 6 277 4.8 9.7 0.00 0.00 0.00 74 1009.1
20260505024523 6 280 4.8 8.0 0.00 0.00 0.00 75 1009.1
20260505023524 6 272 4.8 8.0 0.00 0.00 0.00 76 1009.1
20260505022543 6 248 6.4 9.7 0.00 0.00 0.00 77 1009.1
20260505021523 6 293 4.8 8.0 0.00 0.00 0.00 79 1009.1
20260505020523 7 263 6.4 9.7 0.00 0.00 0.00 79 1009.1
20260505015523 7 293 4.8 16.1 0.00 0.00 0.00 80 1009.1
20260505014524 7 275 6.4 9.7 0.00 0.00 0.00 80 1009.1
20260505013522 7 268 9.7 14.5 0.00 0.00 0.00 80 1009.1
20260505012521 8 270 12.9 17.7 0.00 0.00 0.00 80 1009.1
20260505011518 8 256 11.3 20.9 0.00 0.00 0.00 80 1009.1
20260505010518 8 265 9.7 14.5 0.00 0.00 0.00 81 1009.1
20260505005524 8 264 14.5 20.9 0.00 0.00 0.00 81 1009.1
20260505004523 8 259 14.5 17.7 0.00 0.00 0.00 81 1009.1
20260505003523 8 268 12.9 16.1 0.00 0.00 0.00 81 1009.1
20260505002544 8 286 16.1 22.5 0.00 0.00 0.00 81 1009.1
20260505001523 8 258 12.9 17.7 0.00 0.00 0.00 81 1009.1
20260505000523 8 269 12.9 17.7 0.00 0.00 0.00 81 1009.1